Printer-friendly version

IAU Minor Planet Center

Minor Planet Center

MPEC 2006-U59 : 2006 UY64

The following Minor Planet Electronic Circular may be linked-to from your own Web pages, but must not otherwise be redistributed electronically.


Read MPEC 2006-U58 Read MPEC 2006-U60


M.P.E.C. 2006-U59                                Issued 2006 Oct. 25, 20:28 UT

     The Minor Planet Electronic Circulars contain information on unusual
         minor planets and routine data on comets.  They are published
   on behalf of Commission 20 of the International Astronomical Union by the
          Minor Planet Center, Smithsonian Astrophysical Observatory,
                          Cambridge, MA 02138, U.S.A.

             Prepared using the Tamkin Foundation Computer Network

                              MPC@CFA.HARVARD.EDU
          URL http://cfa-www.harvard.edu/iau/mpc.html  ISSN 1523-6714

                                   2006 UY64

Observations:
     K06U64Y* C2006 10 25.50275 22 34 22.83 -29 36 39.0          16.5 V EU059E12
     K06U64Y  C2006 10 25.50880 22 34 20.92 -29 35 03.0          16.6 V EU059E12
     K06U64Y  C2006 10 25.51485 22 34 19.02 -29 33 26.6          16.5 V EU059E12
     K06U64Y  C2006 10 25.52091 22 34 17.14 -29 31 50.2          16.6 V EU059E12
     K06U64Y  C2006 10 25.55778 22 34 05.70 -29 22 03.2          16.7 V EU059E12
     K06U64Y  C2006 10 25.56556 22 34 03.32 -29 19 59.2          16.6 V EU059E12
     K06U64Y  C2006 10 25.57334 22 34 00.98 -29 17 55.0          16.5 V EU059E12
     K06U64Y  C2006 10 25.58547 22 33 57.33 -29 14 15.3          16.4 R EU059474
     K06U64Y  C2006 10 25.58686 22 33 56.94 -29 13 53.2          16.3 R EU059474
     K06U64Y  C2006 10 25.58825 22 33 56.53 -29 13 31.0          16.4 R EU059474
     K06U64Y  C2006 10 25.59182 22 33 55.44 -29 13 00.8          16.7 V EU059E12
     K06U64Y  C2006 10 25.59212 22 33 55.33 -29 12 55.9          16.6 V EU059E12
     K06U64Y  C2006 10 25.59241 22 33 55.26 -29 12 51.3          16.6 V EU059E12
     K06U64Y  C2006 10 25.59271 22 33 55.15 -29 12 46.7          16.6 V EU059E12
     K06U64Y  C2006 10 25.62196 22 33 46.51 -29 05 00.6          16.6 V EU059E12
     K06U64Y  C2006 10 25.76793 22 33 12.82 -28 28 36.0          17.0 V EU059151
     K06U64Y  C2006 10 25.76871 22 33 12.60 -28 28 24.1          16.9 V EU059151
     K06U64Y  C2006 10 25.76942 22 33 12.41 -28 28 12.5          16.9 V EU059151
     K06U64Y  C2006 10 25.79152 22 33 05.36 -28 22 29.2          16.2 R EU059246
     K06U64Y  C2006 10 25.79208 22 33 05.20 -28 22 20.6                 EU059246
     K06U64Y  C2006 10 25.79244 22 33 05.09 -28 22 14.7                 EU059246
     K06U64Y  C2006 10 25.79292 22 33 04.96 -28 22 07.8                 EU059246
     K06U64Y  C2006 10 25.79326 22 33 04.84 -28 22 02.9                 EU059246
     K06U64Y  C2006 10 25.79362 22 33 04.73 -28 21 57.1                 EU059246

Observer details:
151 Eschenberg Observatory, Winterthur.  Observer M. Griesser.  0.40-m f/5.9
    Hypergraph + CCD.
246 Klet Observatory-KLENOT.  Observers M. Tichy, J. Ticha.  Measurer M. Tichy.
    1.06-m KLENOT Telescope + CCD.
474 Mount John Observatory, Lake Tekapo.  Observer A. C. Gilmore.  1.0-m f/7.7
    reflector + CCD.
E12 Siding Spring Survey.  Observer G. J. Garradd.  Measurers E. C. Beshore,
    E. J. Christensen, G. J. Garradd, A. R. Gibbs, A. D. Grauer, R. E. Hill,
    R. A. Kowalski, S. M. Larson, R. H. McNaught.  0.5-m Uppsala Schmidt + CCD.

Orbital elements:
2006 UY64                                                Earth MOID = 0.0539 AU
Epoch 2006 Sept. 22.0 TT = JDT 2454000.5                MPC
M  96.67631              (2000.0)            P               Q
n   1.09476594     Peri.  211.03377     -0.49852764     +0.83675932
a   0.9323705      Node    30.84519     -0.67680684     -0.21243526
e   0.1564905      Incl.   26.21681     -0.54166658     -0.50468317
P   0.90           H   19.4           G   0.15           U   8
Residuals in seconds of arc
061025 E12  0.0   0.0     061025 474  0.2+  0.2+    061025 151  0.1-  0.2+
061025 E12  0.0   0.2-    061025 474  0.1+  0.3+    061025 151  0.2+  0.7+
061025 E12  0.0   0.0     061025 E12  0.3+  0.0     061025 246  0.1+  0.2+
061025 E12  0.2+  0.0     061025 E12  0.1+  0.1+    061025 246  0.1+  0.0
061025 E12  0.1-  0.0     061025 E12  0.3+  0.1+    061025 246  0.1+  0.3+
061025 E12  0.2-  0.1+    061025 E12  0.0   0.1-    061025 246  0.3+  0.3-
061025 E12  0.1+  0.3+    061025 E12  0.1-  0.3-    061025 246  0.1+  0.7-
061025 474  0.1+  0.3+    061025 151  0.3-  0.5+    061025 246  0.0   0.5-

Ephemeris:
2006 UY64                a,e,i = 0.93, 0.16, 26                  q = 0.7865
Date    TT    R. A. (2000) Decl.     Delta      r     Elong.  Phase     V
2006 10 22    22 56.20   -45 29.1    0.0999   1.037   112.0    62.9    16.7
2006 11 01    22 14.05   -05 35.1    0.127    1.053   115.0    58.7    17.1
2006 11 11    22 03.19   +14 40.2    0.190    1.065   108.2    62.0    18.1
2006 11 21    22 02.58   +24 39.4    0.261    1.073   102.0    64.2    18.9
2006 12 01    22 07.22   +30 39.1    0.333    1.078    96.8    65.3    19.5
2006 12 11    22 15.09   +34 55.0    0.400    1.078    92.4    65.9    19.9
2006 12 21    22 25.43   +38 21.2    0.460    1.074    88.4    66.2    20.2
2006 12 31    22 37.89   +41 24.2    0.511    1.067    84.9    66.6    20.4
2007 01 10    22 52.26   +44 16.0    0.552    1.056    81.7    67.2    20.6
2007 01 20    23 08.70   +47 02.6    0.580    1.041    78.8    68.0    20.7
2007 01 30    23 27.52   +49 47.0    0.595    1.023    76.2    69.3    20.8
2007 02 09    23 49.17   +52 27.4    0.597    1.001    73.9    71.2    20.8
2007 02 19    00 14.59   +54 58.8    0.583    0.977    71.6    73.8    20.8
2007 03 01    00 44.89   +57 11.4    0.556    0.951    69.4    77.4    20.7
2007 03 11    01 21.19   +58 44.6    0.515    0.923    67.0    82.1    20.7
2007 03 21    02 03.92   +59 03.5    0.462    0.895    63.9    88.5    20.6

Timothy B. Spahr             (C) Copyright 2006 MPC           M.P.E.C. 2006-U59

Read MPEC 2006-U58 Read MPEC 2006-U60


Our Web policy. Index to the CBAT/MPC/ICQ pages.


Valid HTML 4.01!